[[{"header":{"parameterUnit":"m.s-1","parameterCategory":1,"la1":30.2991,"la2":30.254,"lo1":-89.0895,"lo2":-89.0444,"dy":0.0017,"dx":0.0017,"nx":28,"ny":28,"refTime":"2024-03-10T21:00:00:Z","depth":0,"parameterNumber":2,"parameterNumberName":"U-component_of_WINDS"},"data":[0,0,0,0,0,0,0,0,0,0,0,0,0,0,0,0,0,0,0,0,0,0,0,0,0,0,0,0,0,0,0,0,0,0,0,0,0,0,0,0,0,0,0,0,0,0,0,0,0,0,0,0,0,0,0,0,0,0,-0.5109,-0.5109,0,-0.509,-0.509,-0.509,-0.5044,-0.5043,-0.5042,-0.5041,-0.5023,-0.5023,-0.5024,0,0,0,0,0,0,0,0,0,0,0,0,0,-0.511,-0.511,-0.511,-0.5109,-0.5109,-0.509,-0.509,-0.509,-0.5044,-0.5043,-0.5042,-0.5041,-0.5023,-0.5023,-0.5024,0,0,0,0,0,0,0,0,0,0,0,0,0,-0.5102,-0.511,-0.511,-0.5084,-0.5082,-0.509,-0.509,-0.5089,-0.5045,-0.5043,-0.5042,-0.504,-0.5023,-0.5023,-0.5024,-0.5056,0,0,-0.5026,-0.5026,0,0,0,0,0,0,0,0,-0.5102,-0.5102,-0.5088,-0.5086,-0.5083,-0.5068,-0.5083,-0.5078,-0.5045,-0.5059,-0.5041,-0.504,-0.5039,-0.5038,-0.5038,-0.5055,-0.5054,-0.5026,-0.5026,-0.5026,-0.5027,0,0,0,0,0,0,0,-0.5103,-0.5102,-0.5102,-0.5088,-0.5085,-0.5074,-0.5072,-0.5082,-0.5057,-0.5057,-0.5054,-0.5052,-0.5038,-0.5037,-0.5037,-0.5054,-0.5026,-0.5026,-0.5027,-0.5027,-0.5098,-0.5099,0,0,0,0,0,0,-0.5107,-0.5103,-0.5102,-0.5101,-0.5089,-0.5076,-0.5073,-0.5074,-0.5057,-0.5053,-0.5053,-0.505,-0.5037,-0.5037,-0.5036,-0.5073,-0.5026,-0.5027,-0.5027,-0.5096,-0.5098,-0.51,0,0,0,0,0,0,-0.5107,-0.5107,-0.5103,-0.5101,-0.51,-0.5077,-0.5079,-0.5075,-0.5074,-0.5054,-0.505,-0.5058,-0.5036,-0.5036,-0.5052,-0.5072,-0.5027,-0.5028,-0.5094,-0.5097,-0.5099,-0.5148,0,0,0,0,0,0,-0.5107,-0.5108,-0.5119,-0.5102,-0.51,-0.5118,-0.5081,-0.5075,-0.5075,-0.5071,-0.5057,-0.5053,-0.5035,-0.5051,-0.5052,-0.5072,-0.5028,-0.5093,-0.5096,-0.5098,-0.5144,-0.5151,-0.5157,0,0,0,0,0,-0.5107,-0.5134,-0.512,-0.512,-0.5114,-0.512,-0.5119,-0.5097,-0.5077,-0.5089,-0.5076,-0.5054,-0.507,-0.5053,-0.5054,-0.5074,-0.5091,-0.5095,-0.5098,-0.5141,-0.515,-0.5157,0,0,0,0,0,0,-0.5154,-0.5131,-0.5115,-0.5137,-0.513,-0.5112,-0.5126,-0.5107,-0.5106,-0.5102,-0.5075,-0.5072,-0.5092,-0.5085,-0.5067,-0.5105,-0.5077,-0.5081,-0.5109,-0.5117,-0.5124,-0.5126,-0.5029,0,0,0,0,0,-0.5167,-0.5173,-0.5152,-0.5173,-0.5171,-0.5149,-0.5151,-0.5134,-0.5127,-0.5124,-0.5112,-0.5107,-0.511,-0.5113,-0.5116,-0.5143,-0.514,-0.5157,-0.5164,-0.517,-0.5173,-0.5188,-0.5196,-0.5111,-0.5111,-0.5111,0,0,-0.5193,-0.5181,-0.5187,-0.5182,-0.5175,-0.5183,-0.5147,-0.5156,-0.5162,-0.5126,-0.514,-0.5131,-0.5123,-0.5145,-0.5154,-0.514,-0.5196,-0.5174,-0.5179,-0.5179,-0.5192,-0.5201,-0.5208,-0.5113,-0.5113,-0.5113,0,0,-0.5245,-0.5237,-0.5253,-0.5247,-0.5237,-0.5223,-0.5227,-0.5212,-0.5204,-0.5218,-0.5192,-0.5198,-0.5205,-0.5201,-0.5199,-0.5251,-0.523,-0.5252,-0.5287,-0.5302,-0.5309,-0.5314,-0.5333,-0.5341,-0.5256,-0.5256,-0.5256,0,-0.528,-0.5289,-0.5265,-0.5276,-0.5275,-0.5242,-0.526,-0.5255,-0.5247,-0.5247,-0.5231,-0.5239,-0.5232,-0.5252,-0.5265,-0.5265,-0.5269,-0.5254,-0.5309,-0.5315,-0.532,-0.5338,-0.5345,-0.5259,-0.5258,-0.5258,-0.5258,0,-0.5332,-0.5339,-0.5354,-0.5347,-0.5348,-0.5362,-0.534,-0.5344,-0.5328,-0.5315,-0.5331,-0.532,-0.532,-0.5324,-0.5308,-0.5343,-0.5334,-0.5314,-0.5285,-0.5331,-0.5348,-0.5354,-0.5263,-0.5262,-0.5261,-0.526,0,0,-0.5413,-0.5392,-0.5398,-0.5395,-0.5382,-0.5387,-0.54,-0.54,-0.5404,-0.54,-0.5411,-0.5418,-0.5399,-0.5398,-0.5381,-0.5394,-0.5436,-0.5372,-0.5372,-0.5385,-0.5475,-0.5491,-0.5499,-0.5423,-0.5424,-0.5425,-0.5476,0,-0.5463,-0.5483,-0.5462,-0.5487,-0.5494,-0.5463,-0.5475,-0.5469,-0.5458,-0.5462,-0.545,-0.5456,-0.543,-0.543,-0.5441,-0.5429,-0.5454,-0.5425,-0.5433,-0.5434,-0.5437,-0.5507,-0.5524,-0.5572,-0.5482,-0.5483,-0.5484,0,-0.5523,-0.5521,-0.5547,-0.5533,-0.5535,-0.5546,-0.5544,-0.5549,-0.5542,-0.5533,-0.5532,-0.5512,-0.5524,-0.5496,-0.5514,-0.5494,-0.5497,-0.5492,-0.5493,-0.5493,-0.5462,-0.551,-0.5587,-0.5595,-0.5494,-0.5493,-0.5492,0,-0.558,-0.5584,-0.56,-0.5598,-0.5582,-0.5591,-0.5585,-0.5576,-0.5577,-0.5576,-0.5577,-0.5577,-0.5578,-0.5579,-0.556,-0.5541,-0.5581,-0.5551,-0.5575,-0.5575,-0.5585,-0.5584,-0.5664,-0.5585,-0.5585,-0.5585,-0.5585,0,-0.5638,-0.5655,-0.5626,-0.5636,-0.5655,-0.5631,-0.565,-0.5641,-0.5633,-0.5642,-0.5616,-0.5624,-0.5598,-0.5605,-0.559,-0.5608,-0.5608,-0.5602,-0.5598,-0.5604,-0.5605,-0.5606,-0.5602,-0.5587,-0.5587,-0.5586,-0.5586,0,-0.5705,-0.5686,-0.5702,-0.5686,-0.5682,-0.5697,-0.5683,-0.5692,-0.5679,-0.569,-0.5692,-0.5672,-0.5678,-0.5659,-0.5662,-0.5652,-0.5678,-0.5668,-0.568,-0.5678,-0.5703,-0.5701,-0.5786,-0.5796,-0.5711,-0.5712,-0.5712,0,-0.5744,-0.5756,-0.5741,-0.5745,-0.574,-0.5746,-0.5747,-0.5724,-0.5726,-0.5719,-0.573,-0.5733,-0.5735,-0.5746,-0.5733,-0.5735,-0.5726,-0.5755,-0.5726,-0.5732,-0.5727,-0.5727,-0.5728,-0.5761,-0.5763,-0.5763,-0.5764,0,-0.5814,-0.5804,-0.5807,-0.5806,-0.5808,-0.5807,-0.5804,-0.5809,-0.5784,-0.5788,-0.5794,-0.5795,-0.5798,-0.5803,-0.5802,-0.5797,-0.5777,-0.5773,-0.5779,-0.5786,-0.5793,-0.5791,-0.5698,-0.5772,-0.5771,-0.577,-0.577,-0.577,-0.5868,-0.5878,-0.587,-0.5874,-0.5869,-0.5867,-0.5875,-0.5863,-0.5867,-0.5867,-0.5854,-0.5862,-0.5856,-0.5853,-0.5849,-0.5856,-0.5843,-0.5851,-0.5853,-0.5856,-0.586,-0.5792,-0.5856,-0.5856,-0.5856,-0.5855,-0.5855,0,-0.5938,-0.5931,-0.5935,-0.5931,-0.5935,-0.5915,-0.5911,-0.5915,-0.5923,-0.5918,-0.592,-0.5927,-0.5932,-0.5919,-0.5921,-0.5929,-0.592,-0.5931,-0.5931,-0.593,-0.5872,-0.5867,-0.5938,-0.5938,-0.5938,-0.5938,-0.5938,-0.5938,-0.5975,-0.5991,-0.598,-0.5994,-0.5987,-0.5995,-0.5995,-0.5993,-0.5989,-0.5998,-0.6001,-0.5992,-0.5984,-0.5986,-0.599,-0.5986,-0.5988,-0.6002,-0.5995,-0.5942,-0.5934,-0.5926,-0.5921,-0.6003,-0.6003,-0.6052,-0.6053,-0.6053]},{"header":{"parameterUnit":"m.s-1","parameterCategory":1,"la1":30.2991,"la2":30.254,"lo1":-89.0895,"lo2":-89.0444,"dy":0.0017,"dx":0.0017,"nx":28,"ny":28,"refTime":"2024-03-10T21:00:00:Z","depth":0,"parameterNumber":3,"parameterNumberName":"V-component_of_WINDS"},"data":[0,0,0,0,0,0,0,0,0,0,0,0,0,0,0,0,0,0,0,0,0,0,0,0,0,0,0,0,0,0,0,0,0,0,0,0,0,0,0,0,0,0,0,0,0,0,0,0,0,0,0,0,0,0,0,0,0,0,0.4251,0.425,0,0.4199,0.4198,0.4197,0.4131,0.413,0.4129,0.4128,0.4073,0.4073,0.4072,0,0,0,0,0,0,0,0,0,0,0,0,0,0.4293,0.4293,0.4251,0.425,0.425,0.4199,0.4198,0.4197,0.4131,0.413,0.4129,0.4127,0.4073,0.4073,0.4072,0,0,0,0,0,0,0,0,0,0,0,0,0,0.4261,0.4293,0.4251,0.4211,0.4207,0.4199,0.4198,0.4197,0.4131,0.413,0.4128,0.4127,0.4073,0.4073,0.4072,0.4099,0,0,0.407,0.407,0,0,0,0,0,0,0,0,0.4263,0.426,0.4217,0.4213,0.4209,0.417,0.4193,0.4164,0.4132,0.416,0.4128,0.4126,0.4106,0.4103,0.4096,0.4097,0.4095,0.407,0.4069,0.4069,0.4069,0,0,0,0,0,0,0,0.4265,0.4262,0.423,0.4217,0.4212,0.4195,0.4189,0.4187,0.4143,0.4157,0.4152,0.4147,0.4104,0.4097,0.4095,0.4094,0.407,0.4069,0.4069,0.4068,0.4113,0.4115,0,0,0,0,0,0,0.4274,0.4264,0.4232,0.4229,0.4233,0.4195,0.4188,0.4184,0.4143,0.4135,0.4149,0.4144,0.4099,0.4096,0.4093,0.4121,0.4069,0.4068,0.4068,0.4111,0.4113,0.4115,0,0,0,0,0,0,0.4275,0.4272,0.4234,0.4245,0.4239,0.4196,0.4192,0.4184,0.4177,0.4136,0.4128,0.415,0.4098,0.4094,0.4098,0.4118,0.4068,0.4067,0.411,0.4112,0.4114,0.4179,0,0,0,0,0,0,0.4277,0.4272,0.4283,0.4246,0.4239,0.4241,0.4193,0.4184,0.4176,0.417,0.4135,0.4128,0.4096,0.41,0.4097,0.4116,0.4067,0.4107,0.4111,0.4113,0.4175,0.4183,0.4191,0,0,0,0,0,0.4278,0.4303,0.4284,0.428,0.4251,0.4242,0.4238,0.4202,0.4178,0.4188,0.4161,0.4129,0.4117,0.4101,0.4098,0.4117,0.4106,0.411,0.4113,0.4171,0.4182,0.4191,0,0,0,0,0,0,0.4343,0.4297,0.4275,0.4289,0.427,0.4231,0.4242,0.4214,0.4201,0.4196,0.4151,0.4143,0.4153,0.4135,0.4118,0.4141,0.4107,0.411,0.4152,0.4161,0.4169,0.4173,0.4066,0,0,0,0,0,0.4359,0.4357,0.4317,0.4332,0.4324,0.4285,0.428,0.4254,0.4232,0.4224,0.4198,0.4178,0.4169,0.4164,0.4154,0.4172,0.4163,0.4184,0.4192,0.4199,0.4202,0.4209,0.4218,0.4127,0.4127,0.4127,0,0,0.4392,0.4367,0.4368,0.4345,0.4327,0.4325,0.4279,0.4279,0.4276,0.4224,0.4226,0.4206,0.4181,0.4192,0.4196,0.4178,0.4225,0.4203,0.4209,0.4208,0.4214,0.4222,0.423,0.4129,0.4129,0.4129,0,0,0.445,0.4431,0.4442,0.4425,0.4399,0.4373,0.4376,0.4341,0.4326,0.4328,0.4288,0.4285,0.4271,0.4255,0.4245,0.4297,0.4267,0.4295,0.4336,0.4344,0.4351,0.4357,0.4375,0.4382,0.4298,0.4299,0.4299,0,0.4494,0.4489,0.4451,0.4453,0.4444,0.4397,0.4407,0.4392,0.4364,0.4359,0.4339,0.4321,0.4301,0.4307,0.432,0.4314,0.4315,0.4298,0.4353,0.4359,0.4364,0.438,0.4387,0.4302,0.4302,0.4301,0.4301,0,0.4544,0.4542,0.4553,0.4528,0.452,0.4526,0.4488,0.4485,0.446,0.4436,0.4438,0.4412,0.4396,0.4396,0.4371,0.4398,0.4388,0.4361,0.4326,0.4377,0.4391,0.4397,0.4307,0.4306,0.4305,0.4304,0,0,0.4641,0.4594,0.4599,0.4586,0.4554,0.4551,0.4556,0.454,0.4538,0.452,0.4522,0.4512,0.4487,0.4476,0.4448,0.4456,0.4498,0.4428,0.4426,0.4441,0.4525,0.4545,0.4553,0.4478,0.4479,0.448,0.4527,0,0.4692,0.4697,0.4662,0.4676,0.4672,0.4628,0.4631,0.4612,0.459,0.4583,0.4559,0.4552,0.452,0.4513,0.4518,0.4492,0.4514,0.4488,0.4478,0.4478,0.4485,0.4561,0.4581,0.4627,0.4533,0.4534,0.4534,0,0.4752,0.4738,0.4752,0.4719,0.4716,0.472,0.4703,0.4698,0.4675,0.4658,0.4645,0.4614,0.4615,0.4583,0.4583,0.4566,0.456,0.4547,0.4548,0.4544,0.4509,0.4558,0.4641,0.4648,0.4543,0.4543,0.4542,0,0.482,0.4805,0.4811,0.4802,0.4764,0.4767,0.4752,0.4727,0.472,0.4705,0.4699,0.4685,0.4676,0.4665,0.4631,0.4611,0.4635,0.46,0.462,0.4621,0.4627,0.4626,0.4709,0.4625,0.4625,0.4625,0.4625,0,0.4881,0.489,0.4841,0.4844,0.4853,0.4814,0.4824,0.4804,0.4783,0.4781,0.4742,0.4741,0.4696,0.469,0.4663,0.4667,0.4664,0.465,0.4642,0.4653,0.4655,0.4647,0.4643,0.4627,0.4626,0.4626,0.4625,0,0.4957,0.4925,0.4928,0.4892,0.4883,0.4892,0.486,0.4862,0.4838,0.4836,0.4833,0.4795,0.4786,0.4751,0.4733,0.4715,0.4727,0.4714,0.4735,0.473,0.4753,0.4751,0.4832,0.484,0.4753,0.4754,0.4755,0,0.4997,0.5004,0.4969,0.4965,0.4951,0.4946,0.4938,0.49,0.4893,0.4868,0.4872,0.486,0.4848,0.4836,0.4806,0.4792,0.4777,0.4807,0.4775,0.4785,0.4776,0.4776,0.4776,0.4813,0.4814,0.4815,0.4816,0,0.5072,0.5055,0.5046,0.5031,0.5024,0.501,0.4994,0.4993,0.495,0.4945,0.4936,0.4927,0.4909,0.4897,0.4879,0.4862,0.4832,0.4827,0.483,0.484,0.4852,0.4845,0.4753,0.4825,0.4824,0.4823,0.4823,0.4822,0.513,0.5134,0.511,0.5101,0.5085,0.5071,0.507,0.5046,0.5038,0.5021,0.4998,0.4992,0.4968,0.494,0.4925,0.4919,0.4902,0.4908,0.491,0.4911,0.4916,0.4855,0.4916,0.4915,0.4915,0.4915,0.4915,0,0.5202,0.5184,0.5176,0.5155,0.5148,0.5122,0.5103,0.5098,0.5093,0.5074,0.5063,0.5052,0.5041,0.501,0.4996,0.4996,0.4982,0.4994,0.4993,0.4989,0.4932,0.493,0.5005,0.5005,0.5005,0.5005,0.5005,0.5005,0.5238,0.5242,0.5223,0.5218,0.52,0.5194,0.5185,0.5172,0.5156,0.5146,0.5137,0.5117,0.5093,0.5076,0.5064,0.5056,0.5052,0.5068,0.5054,0.5002,0.4993,0.4985,0.4982,0.5067,0.5067,0.5111,0.5112,0.5112]}]]